[[{"header":{"parameterUnit":"m.s-1","parameterCategory":1,"la1":30.2992,"la2":30.254,"lo1":-89.0895,"lo2":-89.0443,"dy":0.0025,"dx":0.0025,"nx":19,"ny":19,"refTime":"2026-04-16T21:00:00:Z","depth":0,"parameterNumber":2,"parameterNumberName":"U-component_of_WINDS"},"data":[0,0,0,-0.8,-0.7999,-0.7944,-0.7944,-0.7886,-0.7886,0,0,0,0,0,0,0,0,0,0,0,-0.8024,-0.8024,-0.8,-0.7999,-0.7944,-0.7944,-0.7886,-0.7886,0,0,0,0,0,0,0,0,0,0,0,-0.8024,-0.8024,-0.8023,-0.7999,-0.7944,-0.7944,-0.7886,-0.7923,0,0,0,0,0,0,0,0,0,0,-0.7974,-0.8004,-0.8024,-0.8023,-0.7998,-0.7944,-0.7944,-0.7925,-0.7921,-0.7916,0,-0.7914,0,-0.7899,-0.7883,-0.7882,0,0,0,-0.7993,-0.8007,-0.7985,-0.8023,-0.7998,-0.7944,-0.7967,-0.7922,-0.7918,-0.7911,-0.7913,-0.7911,-0.7898,-0.7882,-0.7882,-0.7876,-0.7876,0,0,-0.7996,-0.8018,-0.7988,-0.7983,-0.7992,-0.7969,-0.7965,-0.792,-0.7923,-0.7913,-0.7909,-0.7897,-0.7882,-0.7882,-0.7876,-0.7876,0,0,0,-0.8009,-0.802,-0.7999,-0.7986,-0.7975,-0.7967,-0.7963,-0.7925,-0.7917,-0.7909,-0.7897,-0.7882,-0.7881,-0.7875,-0.7876,-0.7909,0,0,0,-0.801,-0.8028,-0.8001,-0.8014,-0.7976,-0.7949,-0.7971,-0.792,-0.7914,-0.7897,-0.7882,-0.7881,-0.7875,-0.7875,-0.7907,-0.7921,0,0,0,-0.8025,-0.8029,-0.8024,-0.8015,-0.7993,-0.795,-0.7938,-0.7918,-0.7907,-0.7882,-0.7881,-0.7875,-0.7875,-0.7906,-0.7918,-0.7925,0,0,0,-0.8047,-0.8054,-0.8025,-0.8029,-0.7993,-0.7971,-0.7938,-0.792,-0.7903,-0.7882,-0.7875,-0.7876,-0.7905,-0.7917,-0.7924,-0.7935,-0.7942,0,0,-0.8069,-0.8058,-0.8058,-0.803,-0.8019,-0.7977,-0.7971,-0.7934,-0.7912,-0.7889,-0.7889,-0.7908,-0.7918,-0.7925,-0.7972,-0.7978,0,0,0,-0.8073,-0.8074,-0.8066,-0.8051,-0.8023,-0.8,-0.7963,-0.7949,-0.7929,-0.7905,-0.7912,-0.7917,-0.792,-0.7924,-0.7929,-0.793,-0.7879,-0.7879,-0.7878,-0.8136,-0.8106,-0.8105,-0.807,-0.8056,-0.8017,-0.8002,-0.7977,-0.7952,-0.7954,-0.7947,-0.7979,-0.7985,-0.7988,-0.799,-0.7951,-0.7951,-0.7951,-0.7951,-0.8165,-0.8161,-0.8128,-0.8114,-0.8084,-0.8072,-0.8035,-0.8018,-0.8003,-0.7982,-0.7983,-0.7963,-0.7995,-0.7995,-0.7953,-0.7953,-0.7953,-0.7953,-0.7952,-0.8203,-0.8196,-0.8179,-0.8154,-0.8138,-0.8102,-0.8089,-0.8061,-0.8035,-0.8037,-0.8026,-0.8025,-0.8021,-0.8034,-0.8034,-0.8034,-0.8034,-0.8034,-0.8034,-0.8248,-0.8228,-0.8221,-0.8192,-0.8179,-0.8158,-0.8119,-0.8105,-0.8082,-0.8063,-0.8063,-0.8037,-0.8004,-0.7996,-0.8036,-0.8035,-0.8035,-0.8035,-0.8035,-0.8288,-0.8275,-0.8263,-0.825,-0.8214,-0.82,-0.8165,-0.8139,-0.8123,-0.8118,-0.8092,-0.8072,-0.8059,-0.8055,-0.8048,-0.8098,-0.8098,-0.8098,-0.8098,-0.832,-0.8311,-0.8292,-0.8273,-0.825,-0.8217,-0.8205,-0.8175,-0.8142,-0.813,-0.8119,-0.8108,-0.8105,-0.8094,-0.8089,-0.8082,-0.814,-0.814,-0.814,-0.8343,-0.833,-0.8325,-0.8292,-0.8262,-0.8237,-0.8224,-0.8203,-0.8163,-0.8141,-0.8121,-0.8119,-0.8101,-0.8096,-0.8074,-0.8067,-0.8054,0,0]},{"header":{"parameterUnit":"m.s-1","parameterCategory":1,"la1":30.2992,"la2":30.254,"lo1":-89.0895,"lo2":-89.0443,"dy":0.0025,"dx":0.0025,"nx":19,"ny":19,"refTime":"2026-04-16T21:00:00:Z","depth":0,"parameterNumber":3,"parameterNumberName":"V-component_of_WINDS"},"data":[0,0,0,4.3028,4.3028,4.3012,4.3012,4.3003,4.3003,0,0,0,0,0,0,0,0,0,0,0,4.304,4.304,4.3028,4.3028,4.3012,4.3012,4.3003,4.3003,0,0,0,0,0,0,0,0,0,0,0,4.304,4.304,4.3041,4.3028,4.3012,4.3012,4.3003,4.3011,0,0,0,0,0,0,0,0,0,0,4.3024,4.3042,4.304,4.3041,4.3028,4.3012,4.3012,4.3011,4.3011,4.3016,0,4.3022,0,4.3013,4.3004,4.3004,0,0,0,4.3022,4.3043,4.3032,4.3041,4.3028,4.3012,4.3018,4.3011,4.301,4.3015,4.3022,4.3021,4.3013,4.3004,4.3004,4.3054,4.3054,0,0,4.3023,4.3041,4.3033,4.3032,4.3036,4.3018,4.3017,4.301,4.3019,4.3022,4.3021,4.3013,4.3004,4.3004,4.3053,4.3054,0,0,0,4.303,4.3042,4.3031,4.3033,4.3029,4.3018,4.3017,4.3019,4.3014,4.3021,4.3013,4.3004,4.3004,4.3053,4.3053,4.3096,0,0,0,4.303,4.3045,4.3032,4.3042,4.303,4.3024,4.3026,4.3015,4.3013,4.3013,4.3004,4.3004,4.3052,4.3053,4.3094,4.3113,0,0,0,4.3039,4.3046,4.3047,4.3043,4.3037,4.3024,4.3018,4.3014,4.3009,4.3004,4.3004,4.3052,4.3053,4.3092,4.3109,4.3132,0,0,0,4.3053,4.3083,4.3048,4.3079,4.3038,4.3051,4.3018,4.3027,4.3027,4.3004,4.3052,4.3053,4.3091,4.3107,4.313,4.3155,4.3167,0,0,4.3101,4.309,4.3107,4.3074,4.3099,4.3052,4.3082,4.3065,4.3048,4.3053,4.3054,4.3095,4.3109,4.3132,4.3227,4.3237,0,0,0,4.3128,4.314,4.3143,4.3145,4.3134,4.3127,4.3104,4.3098,4.3102,4.3054,4.3108,4.3116,4.3129,4.314,4.3148,4.3158,4.3059,4.3059,4.3059,4.322,4.3199,4.3226,4.3203,4.3205,4.3183,4.3183,4.3171,4.3147,4.316,4.3161,4.3222,4.3236,4.3242,4.3253,4.3172,4.3173,4.3173,4.3173,4.3289,4.3304,4.3273,4.3289,4.3266,4.3278,4.3258,4.3241,4.3249,4.3219,4.3229,4.3198,4.3253,4.3261,4.3176,4.3175,4.3175,4.3175,4.3174,4.3348,4.3351,4.3345,4.3348,4.3352,4.3327,4.3338,4.3316,4.3295,4.3305,4.3305,4.3304,4.3301,4.3307,4.3307,4.3307,4.3307,4.3307,4.3307,4.3411,4.3402,4.3414,4.3407,4.3407,4.3404,4.3383,4.3382,4.3376,4.3359,4.3359,4.3334,4.3263,4.3245,4.3311,4.331,4.331,4.3309,4.3309,4.3489,4.3469,4.3487,4.3487,4.3478,4.3485,4.3458,4.3458,4.3454,4.3461,4.3434,4.3385,4.3371,4.3364,4.335,4.3438,4.3438,4.3438,4.3438,4.3539,4.3531,4.3545,4.3547,4.3546,4.3524,4.3547,4.3532,4.3513,4.3509,4.3494,4.3473,4.3467,4.3457,4.3448,4.3434,4.3542,4.3542,4.3542,4.3586,4.3577,4.36,4.3582,4.3574,4.3568,4.3589,4.3593,4.3567,4.3546,4.3507,4.3502,4.3468,4.3458,4.3435,4.3422,4.3397,0,0]}]]